DLH89 LOWW-EDDM

Flight info

Callsign DLH89
Flight time N/A
Altitude 28000
Route SOVIL DCT SITNI DCT BAGSI DCT MATIG DCT AMADI Q113 NAPSA NAPSA1B
Aircraft A388/J-SADE2E3FGHIJ3J4J5M1RWXY/LB1D1

Departure

Time 2026-04-25 18:15
Airport Vienna International Airport (LOWW)

Arrival

Time N/A
Airport Munich Airport (EDDM)
Time Latitude Longitude Altitude Speed Heading
2026-04-25 17:24 48.11807 16.55977 625 ft 0 kts 76°
2026-04-25 17:26 48.11808 16.55977 625 ft 0 kts 76°
2026-04-25 18:01 48.11807 16.55975 618 ft 0 kts 76°
2026-04-25 18:02 48.11805 16.55963 622 ft 6 kts 76°
2026-04-25 18:02 48.11800 16.55901 635 ft 5 kts 82°
2026-04-25 18:02 48.11797 16.55868 629 ft 3 kts 82°
2026-04-25 18:02 48.11793 16.55830 630 ft 4 kts 77°
2026-04-25 18:03 48.11791 16.55778 632 ft 5 kts 98°
2026-04-25 18:03 48.11800 16.55738 631 ft 0 kts 115°
2026-04-25 18:07 48.11760 16.55863 629 ft 0 kts 114°
2026-04-25 18:07 48.11759 16.55864 629 ft 1 kts 114°
2026-04-25 18:07 48.11759 16.55865 628 ft 0 kts 114°
2026-04-25 18:08 48.11747 16.55905 627 ft 13 kts 114°
2026-04-25 18:08 48.11732 16.55954 632 ft 3 kts 120°
2026-04-25 18:08 48.11721 16.55971 632 ft 0 kts 149°
2026-04-25 18:08 48.11716 16.55974 632 ft 2 kts 149°
2026-04-25 18:09 48.11697 16.55986 631 ft 3 kts 179°
2026-04-25 18:09 48.11670 16.55982 628 ft 3 kts 166°
2026-04-25 18:09 48.11632 16.56026 631 ft 24 kts 131°
2026-04-25 18:09 48.11570 16.56191 627 ft 28 kts 105°
2026-04-25 18:10 48.11492 16.56391 624 ft 17 kts 124°
2026-04-25 18:10 48.11450 16.56528 632 ft 15 kts 109°
2026-04-25 18:10 48.11414 16.56637 631 ft 3 kts 109°
2026-04-25 18:10 48.11385 16.56729 633 ft 28 kts 114°
2026-04-25 18:11 48.11309 16.56949 630 ft 20 kts 102°
2026-04-25 18:11 48.11283 16.57050 635 ft 14 kts 116°
2026-04-25 18:11 48.11249 16.57141 634 ft 6 kts 110°
2026-04-25 18:11 48.11210 16.57271 633 ft 11 kts 118°
2026-04-25 18:12 48.11162 16.57421 635 ft 20 kts 115°
2026-04-25 18:12 48.11117 16.57514 635 ft 7 kts 108°
2026-04-25 18:12 48.11081 16.57602 628 ft 12 kts 155°
2026-04-25 18:12 48.10999 16.57586 637 ft 13 kts 211°
2026-04-25 18:13 48.10952 16.57490 633 ft 10 kts 281°
2026-04-25 18:13 48.10962 16.57447 634 ft 0 kts 287°
2026-04-25 18:14 48.11014 16.57257 634 ft 57 kts 310°
2026-04-25 18:14 48.11307 16.56393 628 ft 128 kts 297°
2026-04-25 18:14 48.11806 16.54960 671 ft 169 kts 313°
2026-04-25 18:14 48.12377 16.53400 937 ft 171 kts 319°
2026-04-25 18:15 48.12932 16.51816 1155 ft 175 kts 308°
2026-04-25 18:15 48.13186 16.49948 1191 ft 184 kts 292°
2026-04-25 18:15 48.12917 16.48123 1258 ft 190 kts 249°
2026-04-25 18:15 48.12045 16.46903 1226 ft 189 kts 246°
2026-04-25 18:16 48.11155 16.45395 1468 ft 190 kts 252°
2026-04-25 18:16 48.10339 16.43988 1933 ft 194 kts 249°
2026-04-25 18:16 48.08172 16.41294 2575 ft 232 kts 242°
2026-04-25 18:17 48.07086 16.39379 3020 ft 253 kts 243°
2026-04-25 18:17 48.05979 16.37260 3740 ft 264 kts 246°
2026-04-25 18:17 48.05067 16.34867 4308 ft 281 kts 252°
2026-04-25 18:17 48.04424 16.32210 4843 ft 291 kts 248°
2026-04-25 18:18 48.03738 16.29341 5512 ft 289 kts 265°
2026-04-25 18:18 48.04064 16.26508 6612 ft 278 kts 296°